KK7UNF Weather Reports


time (UTC)temp
C
wind
direction
speed
KPH
gust
KPH
rain 1hr
cm
rain 24hr
cm
rain mn
cm
humidity
%
barometer
mb
20260507060048 12 0 0.0 1.6 0.00 0.00 0.00 88 1021.5
20260507054545 12 0 0.0 3.2 0.00 0.00 0.00 87 1021.5
20260507053043 12 0 0.0 0.0 0.00 0.00 0.00 87 1021.4
20260507051542 12 0 0.0 1.6 0.00 0.00 0.00 86 1021.7
20260507050041 12 0 0.0 4.8 0.00 0.00 0.00 86 1021.6
20260507044543 12 0 0.0 11.3 0.00 0.00 0.00 86 1021.5
20260507043042 12 154 4.8 9.7 0.00 0.00 0.00 86 1021.3
20260507041541 12 0 0.0 1.6 0.00 0.00 0.00 86 1021.6
20260507040041 12 0 0.0 1.6 0.00 0.00 0.00 86 1021.6
20260507034542 12 0 0.0 3.2 0.00 0.00 0.00 85 1021.4
20260507033044 12 0 0.0 0.0 0.00 0.00 0.00 85 1021.2
20260507031544 12 0 0.0 1.6 0.00 0.00 0.00 85 1021.0
20260507030043 13 0 0.0 3.2 0.00 0.00 0.00 85 1021.1
20260507024540 13 0 0.0 6.4 0.00 0.00 0.00 85 1021.2
20260507023040 13 159 3.2 8.0 0.00 0.00 0.00 84 1020.9
20260507021540 13 165 1.6 8.0 0.00 0.00 0.00 84 1020.8
20260507020044 13 155 0.0 3.2 0.00 0.00 0.00 84 1021.0
20260507014549 13 0 1.6 8.0 0.00 0.00 0.00 84 1020.9
20260507013049 13 183 0.0 12.9 0.00 0.00 0.00 82 1020.9
20260507011540 13 173 1.6 9.7 0.00 0.00 0.00 83 1020.9
20260507010055 13 153 1.6 11.3 0.00 0.00 0.00 82 1020.9
20260507004536 13 146 3.2 11.3 0.00 0.00 0.00 82 1021.0
20260507003042 13 0 1.6 11.3 0.00 0.00 0.00 82 1021.0
20260507001542 13 162 1.6 8.0 0.00 0.00 0.00 83 1021.1
20260507000040 13 0 0.0 3.2 0.00 0.00 0.00 84 1021.1
20260506234538 13 293 0.0 6.4 0.00 0.00 0.00 85 1021.0
20260506233054 13 254 0.0 9.7 0.00 0.00 0.00 85 1021.2
20260506231546 13 0 0.0 9.7 0.00 0.00 0.00 86 1021.1
20260506230042 13 0 0.0 9.7 0.00 0.00 0.00 87 1021.3
20260506224541 13 0 3.2 11.3 0.00 0.00 0.00 87 1021.3
20260506223040 12 153 0.0 9.7 0.00 0.00 0.00 87 1021.4
20260506221537 12 0 0.0 9.7 0.00 0.00 0.00 88 1021.4
20260506220042 12 0 0.0 4.8 0.00 0.00 0.00 88 1021.4
20260506214540 12 0 0.0 4.8 0.00 0.00 0.00 89 1021.5
20260506213042 12 0 1.6 6.4 0.00 0.00 0.00 89 1021.4
20260506211542 12 252 3.2 11.3 0.00 0.00 0.00 88 1021.5
20260506210041 12 286 1.6 11.3 0.00 0.00 0.00 89 1021.4
20260506204540 12 269 3.2 11.3 0.00 0.00 0.00 89 1021.4
20260506203040 13 284 3.2 12.9 0.00 0.00 0.00 88 1021.3
20260506201537 13 269 0.0 6.4 0.00 0.00 0.00 89 1021.2
20260506200046 13 0 0.0 6.4 0.00 0.00 0.00 89 1021.1
20260506194547 13 297 0.0 3.2 0.00 0.00 0.00 89 1021.0
20260506193042 13 0 0.0 9.7 0.00 0.00 0.00 89 1021.1
20260506191557 12 288 0.0 8.0 0.00 0.00 0.00 90 1021.0
20260506190040 12 0 0.0 11.3 0.00 0.00 0.00 90 1021.2
20260506184546 12 284 1.6 11.3 0.00 0.00 0.00 90 1021.1
20260506183042 13 292 0.0 9.7 0.00 0.00 0.00 90 1020.9
20260506181541 13 0 0.0 9.7 0.00 0.00 0.00 91 1020.8
20260506180043 13 0 0.0 6.4 0.00 0.00 0.00 91 1020.5
20260506174537 12 159 0.0 9.7 0.00 0.00 0.00 92 1020.4
20260506173045 12 0 1.6 9.7 0.00 0.00 0.00 92 1020.8
20260506171551 12 286 0.0 9.7 0.00 0.00 0.00 93 1020.8
20260506170043 12 0 0.0 3.2 0.00 0.00 0.00 93 1020.7
20260506164552 12 261 1.6 6.4 0.00 0.00 0.00 93 1020.5
20260506163042 12 0 0.0 4.8 0.00 0.00 0.00 94 1020.1
20260506161537 12 0 0.0 0.0 0.00 0.00 0.00 94 1020.2
20260506160039 12 0 0.0 8.0 0.00 0.00 0.00 94 1020.1
20260506154553 12 0 0.0 4.8 0.00 0.00 0.00 94 1020.2
20260506153042 12 0 0.0 0.0 0.00 0.00 0.00 94 1020.4
20260506151541 12 0 0.0 0.0 0.00 0.00 0.00 94 1020.2
20260506150040 12 0 0.0 1.6 0.00 0.00 0.00 94 1019.9
20260506144543 12 0 0.0 0.0 0.00 0.00 0.00 93 1019.9
20260506143046 12 0 0.0 4.8 0.00 0.00 0.00 93 1019.8
20260506141603 12 0 0.0 0.0 0.00 0.00 0.00 93 1019.8
20260506140042 12 0 0.0 1.6 0.00 0.00 0.00 93 1019.8
20260506134542 12 0 0.0 0.0 0.00 0.00 0.00 93 1019.6
20260506133040 11 0 0.0 0.0 0.00 0.00 0.00 93 1019.6
20260506131540 11 0 0.0 1.6 0.00 0.00 0.00 93 1019.7
20260506130037 11 0 0.0 0.0 0.00 0.00 0.00 93 1019.5
20260506124546 11 0 0.0 0.0 0.00 0.00 0.00 93 1019.3
20260506123044 11 0 0.0 0.0 0.00 0.00 0.00 93 1019.2
20260506121548 11 0 0.0 0.0 0.00 0.00 0.00 94 1019.2
20260506120106 11 0 0.0 1.6 0.00 0.00 0.00 93 1019.2
20260506114544 11 0 0.0 0.0 0.00 0.00 0.00 94 1018.9
20260506113037 11 0 0.0 0.0 0.00 0.00 0.00 94 1019.0
20260506111544 11 0 0.0 0.0 0.00 0.00 0.00 94 1018.9
20260506110041 11 0 0.0 4.8 0.00 0.00 0.00 94 1018.7
20260506104542 11 0 0.0 0.0 0.00 0.00 0.00 94 1018.6
20260506103040 11 277 0.0 3.2 0.00 0.00 0.00 94 1018.5
20260506101540 11 0 0.0 3.2 0.00 0.00 0.00 94 1018.3
20260506100044 11 0 0.0 6.4 0.00 0.00 0.00 94 1018.2
20260506094540 11 0 0.0 0.0 0.00 0.00 0.00 93 1018.0
20260506093047 11 0 0.0 0.0 0.00 0.00 0.00 93 1018.1
20260506091542 11 0 0.0 0.0 0.00 0.00 0.00 93 1017.9
20260506090043 11 0 0.0 0.0 0.00 0.00 0.00 93 1017.8
20260506084540 11 0 0.0 0.0 0.00 0.00 0.00 93 1017.6
20260506083042 11 0 0.0 1.6 0.00 0.00 0.00 93 1017.5
20260506081549 11 0 0.0 0.0 0.00 0.00 0.00 92 1017.5
20260506073040 11 0 0.0 0.0 0.00 0.00 0.00 91 1017.6
20260506071548 12 0 0.0 0.0 0.00 0.00 0.00 91 1017.4
20260506061541 12 0 0.0 0.0 0.00 0.00 0.00 89 1017.0